Regional Weather Roundup
Issued by NWS

Home | Current Version | Previous Version | Text Only | Print | Product List | Glossary Off
Versions: 1 2 3 4 5 6 7 8 9 10 11 12 13 14 15 16 17 18 19 20 21 22 23 24 25 26 27

000
ASUS45 KCYS 210810
RWRWY

WYOMING REGIONAL WEATHER ROUNDUP
NATIONAL WEATHER SERVICE CHEYENNE WY
100 AM MST TUE FEB 21 2017

NOTE:  "FAIR" INDICATES FEW OR NO CLOUDS BELOW 12,000 FEET
WITH NO SIGNIFICANT WEATHER AND/OR OBSTRUCTIONS TO VISIBILITY.

WYZ001-210900-
YELLOWSTONE NATIONAL PARK

CITY           SKY/WX    TMP DP  RH WIND       PRES   REMARKS
LK YELLOWSTONE   N/A     30  30 100 VRB3      29.89R
W YELLOWSTONE  NOT AVBL

$$
WYZ002>013-054>058-071-098>099-210900-
NORTHERN WYOMING

CITY           SKY/WX    TMP DP  RH WIND       PRES   REMARKS
JACKSON        CLOUDY    34  34 100 SW9       29.91S WCI  26
CODY           FAIR      46  30  53 NW8       29.78S
GREYBULL       FAIR      46  31  55 SE15      29.80S
WORLAND        FAIR      42  33  70 S16       29.80F
SHERIDAN       FAIR      53  27  36 SW28G35   29.74S
BUFFALO        FAIR      49  26  41 S6        29.79R
GILLETTE       FAIR      47  32  56 SW32G47   29.77S
HULETT         FAIR      46  32  57 SW15      29.81F
NEWCASTLE      FAIR      46  30  53 S8        29.89S

$$
WYZ014>020-022>026-101>103-210900-
CENTRAL WYOMING

CITY           SKY/WX    TMP DP  RH WIND       PRES   REMARKS
BIG PINEY      CLOUDY    37  32  82 W22       29.98R WCI  26
PINEDALE       FAIR      34  32  93 S18G28    29.99R WCI  23
DUBOIS         LGT SNOW  32  32 100 CALM      29.89R
LANDER         MOCLDY    44  32  62 SW38G49   29.86R
RIVERTON       FAIR      40  31  70 SW9       29.88S WCI  34
CASPER         FAIR      44  31  60 SW26G46   29.93S
DOUGLAS        FAIR      47  29  49 NW13G22   29.91R

$$
WYZ021-027>030-104>119-210900-
SOUTHERN WYOMING

CITY           SKY/WX    TMP DP  RH WIND       PRES   REMARKS
EVANSTON       MOCLDY    38  31  76 SW24      30.03R WCI  27
KEMMERER         N/A     37  32  81 SW20G29   30.02S WCI  27
FORT BRIDGER   CLOUDY    40  32  73 W13       30.06R WCI  33
ROCK SPRINGS   FAIR      39  29  67 SW21      30.04R WCI  29
DIXON            N/A     42  31  65 S20G29    30.16F
RAWLINS        FAIR      40  29  64 SW35G52   30.02S WCI  28
SARATOGA       FAIR      41  30  65 SW22G33   30.06S
LARAMIE        FAIR      43  21  41 SW25G37   30.03S
CHEYENNE       FAIR      48  18  30 W28G39    29.98F
TORRINGTON     FAIR      43  20  39 SW8       29.92S
PINE BLUFFS    FAIR      28  18  64 N6        30.00R WCI  22

$$




USA.gov is the U.S. government's official web portal to all federal, state and local government web resources and services.